Location: Sternwarte Stuttgart
(48.7824°N, 9.1965°E)
Time: 14:53:17
(UTC+00:00)

ISS - Visible Passes

Search period start: 22 September 2018 00:00
Search period end: 02 October 2018 00:00
Orbit: 403 x 408 km, 51.6° (Epoch: 22 September)

Date Brightness Start Highest point End Pass type
(mag) Time Alt. Az. Time Alt. Az. Time Alt. Az.
22 Sep -2.0 18:26:40 10° S 18:28:46 16° SE 18:28:51 16° SE visible
22 Sep -0.7 20:01:33 10° WSW 20:01:35 10° WSW 20:01:35 10° WSW visible
23 Sep -3.1 19:09:50 10° SW 19:12:20 40° S 19:12:20 40° S visible
24 Sep -2.9 18:18:18 10° SSW 18:21:15 30° SE 18:22:53 20° E visible
24 Sep -1.5 19:54:19 10° W 19:55:36 22° W 19:55:36 22° W visible
25 Sep -4.0 19:02:23 10° WSW 19:05:42 86° SSE 19:06:00 72° E visible
26 Sep -3.7 18:10:34 10° SW 18:13:49 58° SSE 18:16:17 16° ENE visible
26 Sep -1.8 19:47:09 10° W 19:48:57 28° WNW 19:48:57 28° WNW visible
27 Sep -3.5 18:55:07 10° W 18:58:24 64° NNW 18:59:09 46° NE visible
28 Sep -3.8 18:03:08 10° WSW 18:06:27 84° NNW 18:09:15 14° ENE visible
28 Sep -1.9 19:39:56 10° WNW 19:41:55 30° WNW 19:41:55 30° WNW visible
29 Sep -3.2 18:47:53 10° W 18:51:08 51° N 18:51:58 39° NE visible
29 Sep -0.2 20:24:37 10° WNW 20:24:38 10° WNW 20:24:38 10° WNW visible
30 Sep -3.4 17:55:50 10° W 17:59:06 59° NNW 18:01:59 13° ENE visible
30 Sep -2.0 19:32:38 10° WNW 19:34:39 32° NW 19:34:39 32° NW visible
01 Oct -3.2 18:40:36 10° WNW 18:43:50 49° N 18:44:38 38° NE visible
01 Oct -0.3 20:17:12 10° WNW 20:17:18 11° WNW 20:17:18 11° WNW visible
